User: anonymous   Login
Location: Hancock Field Station
(44.9202°N, 120.4259°W)
Time: 10:28:01
(UTC-07:00)
Language:

Nadezhda 4 Rocket - Orbit

View from above orbital plane
View from above orbital plane
View from above satellite
View from above satellite

Ground track
Ground track

The orbit data is extracted from the following two-line orbital elements,

1 23180U 94041B   17293.86884635 +.00000045 +00000-0 +30052-4 0  9995
2 23180 082.9491 197.5029 0027678 230.9313 198.3462 13.77947653169958
Epoch (UTC): 20 October 2017 20:51:08
Eccentricity: 0.0027678
inclination: 82.9491°
perigee height: 951 km
apogee height: 991 km
right ascension of ascending node: 197.5029°
argument of perigee: 230.9313°
revolutions per day: 13.77947653
mean anomaly at epoch: 198.3462°
orbit number at epoch: 16995

The dashed part of the orbit path shows where the satellite is in the earth's shadow,  

DLR